North Bend, OR

9:24 PM PDT on September 19, 2017 (GMT -0700)
North Bend Municipal

Weather History for KOTH - March, 2014

Change the Weather History Date:

Monday, March 17, 2014

  Actual Average Record
Temperature  
Mean Temperature 48 °F 48 °F  
Max Temperature 52 °F 54 °F 79 °F (1939)
Min Temperature 43 °F 42 °F 23 °F (1917)
Degree Days  
Heating Degree Days 17 17  
Month to date heating degree days 210 298  
Since 1 July heating degree days 3007 3472  
Cooling Degree Days 0 0  
Month to date cooling degree days 0 0  
Year to date cooling degree days 0 0  
Moisture  
Dew Point 38 °F    
Average Humidity 71    
Maximum Humidity 93    
Minimum Humidity 54    
Precipitation  
Precipitation 0.03 in 0.26 in 1.72 in (1945)
Month to date precipitation 2.45 4.52  
Year to date precipitation 13.17 22.30  
Sea Level Pressure  
Sea Level Pressure 30.39 in    
Wind  
Wind Speed 13 mph (North)    
Max Wind Speed 21 mph    
Max Gust Speed 27 mph    
Visibility 10 miles    
Events      
T = Trace of Precipitation, MM = Missing Value Source: NWS Daily Summary

Daily Weather History Graph

Daily Weather History Graph

Search for Another Location

Airport or City:

Trip Planner

Search our weather history database for the weather conditions in past years. The results will help you decide how hot, cold, wet, or windy it might be!

Date:

Astronomy

Mar. 17, 2014 Rise Set
Actual Time 7:25 AM PDT 7:25 PM PDT
Civil Twilight 6:56 AM PDT 7:54 PM PDT
Nautical Twilight 6:23 AM PDT 8:27 PM PDT
Astronomical Twilight 5:49 AM PDT 9:01 PM PDT
Moon 8:51 PM PDT (3/17) 7:41 AM PDT (3/17)
Length of Visible Light 12h 57m
Length of Day
12h 00m
Full, 99% of the Moon is Illuminated
Mar 17
Full
Mar 23
Last Quarter
Mar 30
New
Apr 7
First Quarter
Apr 15
Full

Hourly Weather History & Observations

Time (PDT) Temp. Windchill Dew Point Humidity Pressure Visibility Wind Dir Wind Speed Gust Speed Precip Events Conditions
12:15 AM 46.4 °F 40.4 °F 44.6 °F 93% 30.25 in 10.0 mi North 13.8 mph 19.6 mph 0.01 in   Overcast
12:35 AM 46.4 °F 41.1 °F 44.6 °F 93% 30.25 in 10.0 mi North 11.5 mph - 0.01 in   Overcast
12:55 AM 46.4 °F 41.1 °F 44.6 °F 93% 30.26 in 9.0 mi NNW 11.5 mph 18.4 mph 0.01 in   Overcast
1:15 AM 46.4 °F 40.7 °F 44.6 °F 93% 30.27 in 10.0 mi North 12.7 mph - N/A   Mostly Cloudy
1:35 AM 46.4 °F 42.9 °F 44.6 °F 93% 30.28 in 10.0 mi North 6.9 mph - N/A   Overcast
1:55 AM 46.4 °F 41.9 °F 44.6 °F 93% 30.30 in 10.0 mi North 9.2 mph - N/A   Overcast
2:15 AM 46.4 °F 42.4 °F 42.8 °F 87% 30.30 in 10.0 mi NNW 8.1 mph - N/A   Overcast
2:35 AM 46.4 °F 42.4 °F 42.8 °F 87% 30.31 in 10.0 mi NNW 8.1 mph - N/A   Overcast
2:55 AM 46.4 °F 41.9 °F 42.8 °F 87% 30.32 in 10.0 mi NNW 9.2 mph - N/A   Overcast
3:15 AM 44.6 °F 39.7 °F 42.8 °F 93% 30.32 in 8.0 mi North 9.2 mph 26.5 mph 0.01 in   Overcast
3:35 AM 44.6 °F 40.7 °F 42.8 °F 93% 30.33 in 9.0 mi NNW 6.9 mph - 0.01 in   Overcast
3:55 AM 46.4 °F 42.4 °F 42.8 °F 87% 30.33 in 10.0 mi NNW 8.1 mph - 0.01 in   Overcast
4:15 AM 46.4 °F 40.4 °F 42.8 °F 87% 30.33 in 9.0 mi North 13.8 mph - 0.01 in   Overcast
4:35 AM 46.4 °F 40.1 °F 42.8 °F 87% 30.33 in 10.0 mi North 15.0 mph 19.6 mph 0.02 in   Mostly Cloudy
4:55 AM 46.4 °F 39.5 °F 42.8 °F 87% 30.33 in 10.0 mi North 17.3 mph 20.7 mph 0.02 in   Mostly Cloudy
5:15 AM 46.4 °F 39.5 °F 41.0 °F 81% 30.34 in 10.0 mi North 17.3 mph 24.2 mph N/A   Mostly Cloudy
5:35 AM 46.4 °F 39.8 °F 39.2 °F 76% 30.35 in 10.0 mi North 16.1 mph 26.5 mph N/A   Mostly Cloudy
5:55 AM 46.4 °F 38.7 °F 39.2 °F 76% 30.35 in 10.0 mi NNW 20.7 mph 26.5 mph N/A   Overcast
6:15 AM 46.4 °F 39.5 °F 37.4 °F 71% 30.36 in 10.0 mi North 17.3 mph 23.0 mph N/A   Mostly Cloudy
6:35 AM 46.4 °F 39.2 °F 37.4 °F 71% 30.37 in 10.0 mi North 18.4 mph 23.0 mph N/A   Mostly Cloudy
6:55 AM 46.4 °F 39.8 °F 35.6 °F 66% 30.38 in 10.0 mi North 16.1 mph 21.9 mph N/A   Mostly Cloudy
7:15 AM 46.4 °F 39.8 °F 37.4 °F 71% 30.39 in 10.0 mi NNW 16.1 mph 23.0 mph N/A   Partly Cloudy
7:35 AM 46.4 °F 40.4 °F 35.6 °F 66% 30.39 in 10.0 mi North 13.8 mph - N/A   Partly Cloudy
7:55 AM 46.4 °F 40.7 °F 37.4 °F 71% 30.40 in 10.0 mi North 12.7 mph - N/A   Overcast
8:15 AM 46.4 °F 41.1 °F 35.6 °F 66% 30.41 in 10.0 mi North 11.5 mph - N/A   Mostly Cloudy
8:35 AM 46.4 °F 40.1 °F 35.6 °F 66% 30.41 in 10.0 mi North 15.0 mph - N/A   Scattered Clouds
8:55 AM 46.4 °F 40.7 °F 35.6 °F 66% 30.42 in 10.0 mi North 12.7 mph - N/A   Scattered Clouds
9:15 AM 48.2 °F - 35.6 °F 62% 30.42 in 10.0 mi North 15.0 mph 18.4 mph N/A   Mostly Cloudy
9:35 AM 46.4 °F 40.4 °F 35.6 °F 66% 30.43 in 10.0 mi North 13.8 mph - N/A   Mostly Cloudy
9:55 AM 46.4 °F 40.7 °F 37.4 °F 71% 30.43 in 10.0 mi NNW 12.7 mph 17.3 mph N/A   Mostly Cloudy
10:15 AM 48.2 °F - 37.4 °F 66% 30.44 in 10.0 mi NE 9.2 mph - N/A   Mostly Cloudy
10:35 AM 46.4 °F 42.9 °F 37.4 °F 71% 30.44 in 10.0 mi NE 6.9 mph - N/A   Mostly Cloudy
10:55 AM 48.2 °F - 39.2 °F 71% 30.44 in 10.0 mi NE 5.8 mph - N/A   Mostly Cloudy
11:15 AM 48.2 °F - 37.4 °F 66% 30.45 in 10.0 mi Calm Calm - N/A   Mostly Cloudy
11:35 AM 48.2 °F - 35.6 °F 62% 30.45 in 10.0 mi NNW 10.4 mph - N/A   Scattered Clouds
11:55 AM 50.0 °F - 35.6 °F 58% 30.45 in 10.0 mi North 12.7 mph - N/A   Clear
12:15 PM 50.0 °F - 37.4 °F 62% 30.45 in 10.0 mi NNW 10.4 mph 19.6 mph N/A   Clear
12:35 PM 50.0 °F - 37.4 °F 62% 30.44 in 10.0 mi North 12.7 mph - N/A   Mostly Cloudy
12:55 PM 48.2 °F - 39.2 °F 71% 30.44 in 10.0 mi NE 10.4 mph - N/A   Mostly Cloudy
1:15 PM 50.0 °F - 37.4 °F 62% 30.44 in 10.0 mi North 15.0 mph - N/A   Mostly Cloudy
1:35 PM 50.0 °F - 37.4 °F 62% 30.44 in 10.0 mi North 17.3 mph - N/A   Scattered Clouds
1:55 PM 51.8 °F - 37.4 °F 58% 30.43 in 10.0 mi North 15.0 mph 20.7 mph N/A   Partly Cloudy
2:15 PM 51.8 °F - 37.4 °F 58% 30.43 in 10.0 mi North 16.1 mph 21.9 mph N/A   Clear
2:35 PM 51.8 °F - 37.4 °F 58% 30.42 in 10.0 mi North 16.1 mph 21.9 mph N/A   Clear
2:55 PM 51.8 °F - 37.4 °F 58% 30.42 in 10.0 mi North 13.8 mph 23.0 mph N/A   Clear
3:15 PM 51.8 °F - 35.6 °F 54% 30.42 in 10.0 mi North 18.4 mph - N/A   Clear
3:35 PM 51.8 °F - 35.6 °F 54% 30.42 in 10.0 mi North 17.3 mph 20.7 mph N/A   Clear
3:55 PM 51.8 °F - 35.6 °F 54% 30.42 in 10.0 mi North 18.4 mph 24.2 mph N/A   Clear
4:15 PM 51.8 °F - 33.8 °F 50% 30.41 in 10.0 mi North 19.6 mph 24.2 mph N/A   Clear
4:35 PM 51.8 °F - 35.6 °F 54% 30.42 in 10.0 mi North 19.6 mph 23.0 mph N/A   Clear
4:55 PM 50.0 °F - 35.6 °F 58% 30.41 in 10.0 mi North 18.4 mph - N/A   Clear
5:15 PM 50.0 °F - 35.6 °F 58% 30.41 in 10.0 mi North 19.6 mph 25.3 mph N/A   Clear
5:35 PM 50.0 °F - 35.6 °F 58% 30.41 in 10.0 mi North 17.3 mph 24.2 mph N/A   Clear
5:55 PM 50.0 °F - 35.6 °F 58% 30.41 in 10.0 mi North 18.4 mph 23.0 mph N/A   Clear
6:15 PM 48.2 °F - 35.6 °F 62% 30.41 in 10.0 mi North 17.3 mph 21.9 mph N/A   Clear
6:35 PM 48.2 °F - 37.4 °F 66% 30.41 in 10.0 mi North 15.0 mph 18.4 mph N/A   Clear
6:55 PM 48.2 °F - 37.4 °F 66% 30.41 in 10.0 mi North 11.5 mph 19.6 mph N/A   Clear
7:15 PM 48.2 °F - 37.4 °F 66% 30.41 in 10.0 mi North 13.8 mph 19.6 mph N/A   Clear
7:35 PM 46.4 °F 40.4 °F 39.2 °F 76% 30.41 in 10.0 mi North 13.8 mph 19.6 mph N/A   Scattered Clouds
7:55 PM 46.4 °F 40.7 °F 39.2 °F 76% 30.41 in 10.0 mi North 12.7 mph - N/A   Mostly Cloudy
8:15 PM 46.4 °F 39.8 °F 37.4 °F 71% 30.41 in 10.0 mi North 16.1 mph - N/A   Partly Cloudy
8:35 PM 46.4 °F 41.9 °F 37.4 °F 71% 30.41 in 10.0 mi NNE 9.2 mph - N/A   Clear
8:55 PM 46.4 °F 40.7 °F 37.4 °F 71% 30.41 in 10.0 mi North 12.7 mph - N/A   Clear
9:15 PM 46.4 °F 41.5 °F 37.4 °F 71% 30.42 in 10.0 mi NNE 10.4 mph - N/A   Clear
9:35 PM 46.4 °F 41.5 °F 37.4 °F 71% 30.42 in 10.0 mi NNE 10.4 mph - N/A   Clear
9:55 PM 46.4 °F 41.1 °F 37.4 °F 71% 30.42 in 10.0 mi NNE 11.5 mph - N/A   Clear
10:15 PM 46.4 °F 41.9 °F 37.4 °F 71% 30.42 in 10.0 mi North 9.2 mph - N/A   Clear
10:35 PM 46.4 °F 41.5 °F 37.4 °F 71% 30.42 in 10.0 mi NNE 10.4 mph - N/A   Clear
10:55 PM 44.6 °F 39.2 °F 37.4 °F 76% 30.42 in 10.0 mi NNE 10.4 mph - N/A   Clear
11:15 PM 44.6 °F 40.2 °F 37.4 °F 76% 30.43 in 10.0 mi NNE 8.1 mph - N/A   Clear
11:35 PM 44.6 °F 40.2 °F 37.4 °F 76% 30.42 in 10.0 mi NNE 8.1 mph - N/A   Clear
11:55 PM 44.6 °F 41.4 °F 37.4 °F 76% 30.42 in 10.0 mi ENE 5.8 mph - N/A   Clear